CW5316 Weather Reports


Display with metric or nautical units.
time (UTC)temp
F
wind
direction
speed
MPH
gust
MPH
rain 1hr
in
rain 24hr
in
rain mn
in
humidity
%
barometer
mb
20260507044542 50 0 0.0 0.0 0.00 0.00 0.00 94 1021.2
20260507044021 50 0 0.0 0.0 0.00 0.00 0.00 94 1021.2
20260507043520 50 0 0.0 0.0 0.00 0.00 0.00 94 1021.1
20260507043041 50 0 0.0 0.0 0.00 0.00 0.00 94 1021.2
20260507042520 50 0 0.0 0.0 0.00 0.00 0.00 94 1021.3
20260507042021 50 0 0.0 1.0 0.00 0.00 0.00 94 1021.2
20260507041544 50 0 0.0 1.0 0.00 0.00 0.00 94 1021.4
20260507041021 51 0 0.0 0.0 0.00 0.00 0.00 94 1021.3
20260507040521 51 0 0.0 0.0 0.00 0.00 0.00 94 1021.3
20260507040035 50 0 0.0 0.0 0.00 0.00 0.00 94 1021.2
20260507035517 51 0 0.0 0.0 0.00 0.00 0.00 94 1021.0
20260507035021 51 0 0.0 0.0 0.00 0.00 0.00 94 1021.0
20260507034546 51 0 0.0 0.0 0.00 0.00 0.00 93 1020.9
20260507034021 51 0 0.0 0.0 0.00 0.00 0.00 93 1020.9
20260507033522 51 0 0.0 0.0 0.00 0.00 0.00 93 1020.8
20260507033039 51 0 0.0 0.0 0.00 0.00 0.00 93 1020.8
20260507032524 51 0 0.0 0.0 0.00 0.00 0.00 93 1020.8
20260507032021 51 0 0.0 0.0 0.00 0.00 0.00 93 1020.7
20260507031535 51 0 0.0 0.0 0.00 0.00 0.00 93 1020.7
20260507031024 51 0 0.0 0.0 0.00 0.00 0.00 92 1020.7
20260507030523 51 0 0.0 0.0 0.00 0.00 0.00 93 1020.6
20260507030035 51 0 0.0 0.0 0.00 0.00 0.00 92 1020.6
20260507025521 51 0 0.0 0.0 0.00 0.00 0.00 92 1020.6
20260507025021 51 0 0.0 0.0 0.00 0.00 0.00 92 1020.6
20260507024551 51 0 0.0 0.0 0.00 0.00 0.00 93 1020.5
20260507024021 51 0 0.0 0.0 0.00 0.00 0.00 93 1020.5
20260507023529 51 0 0.0 0.0 0.00 0.00 0.00 93 1020.5
20260507023041 51 0 0.0 0.0 0.00 0.00 0.00 92 1020.6
20260507022522 51 0 0.0 0.0 0.00 0.00 0.00 92 1020.5
20260507022022 51 0 0.0 0.0 0.00 0.00 0.00 92 1020.5
20260507021535 51 0 0.0 0.0 0.00 0.00 0.00 92 1020.6
20260507021025 51 0 0.0 0.0 0.00 0.00 0.00 92 1020.6
20260507020522 51 0 0.0 0.0 0.00 0.00 0.00 92 1020.5
20260507020043 51 0 0.0 0.0 0.00 0.00 0.00 92 1020.4
20260507015521 51 0 0.0 0.0 0.00 0.00 0.00 92 1020.4
20260507015021 51 0 0.0 0.0 0.00 0.00 0.00 92 1020.4
20260507014552 51 0 0.0 0.0 0.00 0.00 0.00 93 1020.4
20260507014021 51 0 0.0 0.0 0.00 0.00 0.00 92 1020.5
20260507013521 51 0 0.0 2.0 0.00 0.00 0.00 93 1020.4
20260507013045 51 0 0.0 2.0 0.00 0.00 0.00 93 1020.5
20260507012522 51 0 0.0 0.0 0.00 0.00 0.00 93 1020.5
20260507012023 51 0 0.0 0.0 0.00 0.00 0.00 93 1020.5
20260507011539 51 0 0.0 0.0 0.00 0.00 0.00 93 1020.4
20260507011021 51 0 0.0 0.0 0.00 0.00 0.00 93 1020.4
20260507010524 51 0 0.0 0.0 0.00 0.00 0.00 92 1020.5
20260507010039 51 0 0.0 0.0 0.00 0.00 0.00 93 1020.5
20260507005526 51 0 0.0 1.0 0.00 0.00 0.00 93 1020.7
20260507005022 51 0 0.0 2.0 0.00 0.00 0.00 93 1020.6
20260507004545 51 0 0.0 2.0 0.00 0.00 0.00 93 1020.7
20260507004026 51 0 0.0 2.0 0.00 0.00 0.00 94 1020.7
20260507003522 51 0 0.0 2.0 0.00 0.00 0.00 94 1020.9
20260507003045 51 0 0.0 2.0 0.00 0.00 0.00 93 1020.8
20260507002521 51 0 0.0 2.0 0.00 0.00 0.00 94 1020.8
20260507002018 51 0 0.0 1.0 0.00 0.00 0.00 94 1020.8
20260507001539 51 0 0.0 1.0 0.00 0.00 0.00 94 1020.8
20260507001021 51 0 0.0 4.0 0.00 0.00 0.00 94 1020.7
20260507000521 51 0 1.0 4.0 0.00 0.00 0.00 93 1020.7
20260507000040 51 91 1.0 3.0 0.00 0.00 0.00 94 1020.7
20260506235521 51 112 0.0 2.0 0.00 0.00 0.00 93 1020.7
20260506235020 51 0 0.0 0.0 0.00 0.00 0.00 93 1020.7
20260506234540 51 0 0.0 2.0 0.00 0.00 0.00 93 1020.6
20260506234022 51 0 0.0 2.0 0.00 0.00 0.00 93 1020.6
20260506233521 51 0 0.0 2.0 0.00 0.00 0.00 93 1020.4
20260506233038 52 0 0.0 2.0 0.00 0.00 0.00 93 1020.5
20260506232517 52 0 0.0 2.0 0.00 0.00 0.00 93 1020.5
20260506232018 52 186 0.0 2.0 0.00 0.00 0.00 92 1020.5
20260506231550 52 0 0.0 4.0 0.00 0.00 0.00 92 1020.6
20260506231022 52 0 0.0 4.0 0.00 0.00 0.00 93 1020.4
20260506230518 51 0 0.0 2.0 0.00 0.00 0.00 92 1020.5
20260506230054 52 0 0.0 3.0 0.00 0.00 0.00 92 1020.6
20260506225525 52 184 0.0 3.0 0.00 0.00 0.00 92 1020.6
20260506225021 52 161 0.0 2.0 0.00 0.00 0.00 92 1020.7
20260506224539 52 0 0.0 4.0 0.00 0.00 0.00 92 1020.7
20260506224021 52 200 1.0 4.0 0.00 0.00 0.00 92 1020.7
20260506223517 52 0 0.0 4.0 0.00 0.00 0.00 92 1020.7
20260506223050 52 0 0.0 3.0 0.00 0.00 0.00 92 1020.7
20260506222521 52 0 0.0 4.0 0.00 0.00 0.00 93 1020.8
20260506222020 52 101 0.0 4.0 0.00 0.00 0.00 92 1020.8
20260506221535 52 0 0.0 3.0 0.00 0.00 0.00 93 1020.8
20260506221019 52 94 1.0 3.0 0.00 0.00 0.00 92 1020.8
20260506220521 52 0 0.0 3.0 0.00 0.00 0.00 91 1020.8
20260506220036 52 143 0.0 5.0 0.00 0.00 0.00 91 1020.7
20260506215527 52 0 0.0 5.0 0.00 0.00 0.00 90 1020.7
20260506215021 53 0 0.0 3.0 0.00 0.00 0.00 90 1020.8
20260506214539 53 106 0.0 3.0 0.00 0.00 0.00 89 1020.7
20260506214018 53 238 1.0 3.0 0.00 0.00 0.00 89 1020.6
20260506213525 53 0 1.0 5.0 0.00 0.00 0.00 88 1020.7
20260506213059 53 0 0.0 5.0 0.00 0.00 0.00 88 1020.7
20260506212518 53 174 1.0 7.0 0.00 0.00 0.00 88 1020.7
20260506212021 53 0 1.0 7.0 0.00 0.00 0.00 88 1020.7
20260506211547 54 209 0.0 5.0 0.00 0.00 0.00 88 1020.7
20260506211021 54 180 1.0 5.0 0.00 0.00 0.00 88 1020.8
20260506210521 54 207 1.0 6.0 0.00 0.00 0.00 87 1020.7
20260506210036 54 167 2.0 6.0 0.00 0.00 0.00 88 1020.6
20260506205522 53 114 1.0 6.0 0.00 0.00 0.00 88 1020.4
20260506205021 54 129 1.0 7.0 0.00 0.00 0.00 87 1020.5
20260506204548 54 144 1.0 7.0 0.00 0.00 0.00 87 1020.5
20260506204018 54 108 2.0 7.0 0.00 0.00 0.00 87 1020.3
20260506203518 54 113 2.0 7.0 0.00 0.00 0.00 86 1020.3
20260506203045 55 101 1.0 7.0 0.00 0.00 0.00 86 1020.3
20260506202520 55 125 1.0 6.0 0.00 0.00 0.00 86 1020.2
20260506202024 55 86 0.0 6.0 0.00 0.00 0.00 85 1020.3
20260506201553 55 113 2.0 6.0 0.00 0.00 0.00 84 1020.2
20260506201021 56 85 0.0 7.0 0.00 0.00 0.00 84 1020.2
20260506200517 55 0 4.0 7.0 0.00 0.00 0.00 85 1020.1
20260506200035 56 105 2.0 6.0 0.00 0.00 0.00 84 1020.1
20260506195521 56 0 0.0 7.0 0.00 0.00 0.00 84 1020.1
20260506195023 55 113 0.0 7.0 0.00 0.00 0.00 86 1020.1
20260506194555 55 96 2.0 7.0 0.00 0.00 0.00 85 1020.1
20260506194022 55 103 1.0 6.0 0.00 0.00 0.00 87 1020.1
20260506193522 55 100 1.0 7.0 0.00 0.00 0.00 86 1020.1
20260506193041 55 134 2.0 7.0 0.00 0.00 0.00 85 1020.2
20260506192522 55 0 0.0 6.0 0.00 0.00 0.00 86 1020.2
20260506192023 55 115 1.0 6.0 0.00 0.00 0.00 85 1020.0
20260506191546 55 193 2.0 6.0 0.00 0.00 0.00 85 1020.0
20260506191025 56 77 1.0 5.0 0.00 0.00 0.00 85 1020.1
20260506190529 57 190 0.0 5.0 0.00 0.00 0.00 85 1020.1
20260506190038 57 186 1.0 6.0 0.00 0.00 0.00 83 1020.0
20260506185524 57 255 1.0 6.0 0.00 0.00 0.00 84 1020.0
20260506185023 56 115 1.0 6.0 0.00 0.00 0.00 84 1019.8
20260506184543 56 101 2.0 6.0 0.00 0.00 0.00 85 1019.8
20260506184022 55 116 2.0 6.0 0.00 0.00 0.00 86 1019.8
20260506183522 55 0 1.0 7.0 0.00 0.00 0.00 88 1019.7
20260506183057 54 101 1.0 7.0 0.00 0.00 0.00 88 1019.6
20260506182521 54 98 3.0 7.0 0.00 0.00 0.00 88 1019.8
20260506182022 53 0 1.0 6.0 0.00 0.00 0.00 89 1019.8
20260506181543 53 117 1.0 6.0 0.00 0.00 0.00 90 1019.8
20260506181023 53 0 2.0 6.0 0.00 0.00 0.00 89 1019.8
20260506180521 53 115 1.0 4.0 0.00 0.00 0.00 90 1019.9
20260506180047 53 100 2.0 4.0 0.00 0.00 0.00 90 1020.1
20260506175522 53 0 0.0 4.0 0.00 0.00 0.00 89 1020.1
20260506175022 53 203 0.0 4.0 0.00 0.00 0.00 90 1020.0
20260506174540 53 0 1.0 4.0 0.00 0.00 0.00 89 1020.0
20260506174023 53 122 1.0 4.0 0.00 0.00 0.00 89 1020.1
20260506173524 53 96 0.0 4.0 0.00 0.00 0.00 89 1020.1
20260506173053 53 0 0.0 6.0 0.00 0.00 0.00 88 1020.0
20260506172522 53 0 0.0 6.0 0.00 0.00 0.00 89 1019.8
20260506172021 53 105 0.0 6.0 0.00 0.00 0.00 88 1019.8
20260506171543 53 95 1.0 3.0 0.00 0.00 0.00 87 1019.8
20260506171026 54 0 0.0 4.0 0.00 0.00 0.00 89 1019.8
20260506170525 53 96 1.0 4.0 0.00 0.00 0.00 89 1019.6
20260506165521 53 117 0.0 6.0 0.00 0.00 0.00 90 1019.4
20260506165023 53 106 1.0 6.0 0.00 0.00 0.00 91 1019.4
20260506164539 52 101 1.0 4.0 0.00 0.00 0.00 91 1019.5
20260506164023 52 108 0.0 4.0 0.00 0.00 0.00 90 1019.5
20260506163522 52 100 0.0 4.0 0.00 0.00 0.00 91 1019.4
20260506163035 52 108 0.0 3.0 0.00 0.00 0.00 91 1019.4
20260506162523 52 0 0.0 3.0 0.00 0.00 0.00 91 1019.6
20260506162026 51 0 0.0 3.0 0.00 0.00 0.00 92 1019.5
20260506161539 52 115 0.0 3.0 0.00 0.00 0.00 91 1019.5
20260506161021 52 0 0.0 2.0 0.00 0.00 0.00 91 1019.7
20260506160525 52 206 0.0 3.0 0.00 0.00 0.00 92 1019.6
20260506160040 52 0 0.0 3.0 0.00 0.00 0.00 92 1019.6
20260506155525 52 107 1.0 2.0 0.00 0.00 0.00 92 1019.6
20260506155021 51 0 0.0 4.0 0.00 0.00 0.00 92 1019.5
20260506154544 51 0 0.0 4.0 0.00 0.00 0.00 93 1019.3
20260506154023 51 116 1.0 6.0 0.00 0.00 0.00 92 1019.4
20260506153522 51 104 2.0 6.0 0.00 0.00 0.00 92 1019.5
20260506153039 51 112 1.0 4.0 0.00 0.00 0.00 92 1019.7
20260506152522 51 107 0.0 3.0 0.00 0.00 0.00 92 1019.7
20260506152026 52 112 0.0 2.0 0.00 0.00 0.00 92 1019.7
20260506151537 52 0 0.0 0.0 0.00 0.00 0.00 92 1019.7
20260506151021 52 0 0.0 0.0 0.00 0.00 0.00 92 1019.8
20260506150521 52 0 0.0 0.0 0.00 0.00 0.00 92 1019.6
20260506150035 51 0 0.0 0.0 0.00 0.00 0.00 92 1019.6
20260506145524 51 0 0.0 0.0 0.00 0.00 0.00 93 1019.3
20260506145022 51 0 0.0 0.0 0.00 0.00 0.00 93 1019.3
20260506144555 51 0 0.0 4.0 0.00 0.00 0.00 93 1019.2
20260506144024 50 0 0.0 4.0 0.00 0.00 0.00 93 1019.3
20260506143523 50 273 1.0 4.0 0.00 0.00 0.00 93 1019.3
20260506143041 50 0 0.0 3.0 0.00 0.00 0.00 93 1019.3
20260506142521 51 101 0.0 3.0 0.00 0.00 0.00 93 1019.4
20260506142026 51 200 0.0 3.0 0.00 0.00 0.00 93 1019.6
20260506141539 51 195 1.0 3.0 0.00 0.00 0.00 93 1019.5
20260506141026 51 94 1.0 3.0 0.00 0.00 0.00 92 1019.4
20260506140522 51 0 0.0 0.0 0.00 0.00 0.00 93 1019.7
20260506140043 51 0 0.0 0.0 0.00 0.00 0.00 93 1019.5
20260506135521 51 0 0.0 0.0 0.00 0.00 0.00 93 1019.5
20260506135021 51 0 0.0 4.0 0.00 0.00 0.00 93 1019.3
20260506134549 50 0 0.0 4.0 0.00 0.00 0.00 93 1019.3
20260506134021 51 269 1.0 4.0 0.00 0.00 0.00 93 1019.1
20260506133526 51 0 0.0 4.0 0.00 0.00 0.00 93 1018.9
20260506133043 51 0 0.0 4.0 0.00 0.00 0.00 93 1019.0
20260506132523 51 170 0.0 2.0 0.00 0.00 0.00 93 1019.1
20260506132025 51 0 0.0 2.0 0.00 0.00 0.00 93 1019.1
20260506131538 51 0 0.0 1.0 0.00 0.00 0.00 93 1019.1
20260506131023 51 0 0.0 2.0 0.00 0.00 0.00 94 1018.9
20260506130523 51 0 0.0 3.0 0.00 0.00 0.00 94 1018.9
20260506130040 51 0 0.0 4.0 0.00 0.00 0.00 93 1018.8
20260506125522 51 123 0.0 4.0 0.00 0.00 0.00 93 1018.7
20260506125023 51 112 0.0 4.0 0.00 0.00 0.00 93 1018.8
20260506124538 51 0 0.0 0.0 0.00 0.00 0.00 93 1018.6
20260506124021 51 0 0.0 0.0 0.00 0.00 0.00 93 1018.7
20260506123522 51 0 0.0 0.0 0.00 0.00 0.00 94 1018.7
20260506123045 51 0 0.0 0.0 0.00 0.00 0.00 94 1018.6
20260506122523 51 0 0.0 0.0 0.00 0.00 0.00 94 1018.5
20260506122022 51 0 0.0 0.0 0.00 0.00 0.00 94 1018.5
20260506121545 51 0 0.0 2.0 0.00 0.00 0.00 93 1018.4
20260506121022 51 0 0.0 2.0 0.00 0.00 0.00 94 1018.4
20260506120522 51 0 0.0 3.0 0.00 0.00 0.00 93 1018.3
20260506120044 51 0 0.0 3.0 0.00 0.00 0.00 93 1018.3
20260506115522 51 109 1.0 3.0 0.00 0.00 0.00 93 1018.4
20260506115022 51 94 2.0 4.0 0.00 0.00 0.00 93 1018.3
20260506114538 51 136 1.0 4.0 0.00 0.00 0.00 93 1018.3
20260506114023 51 160 1.0 4.0 0.00 0.00 0.00 92 1018.3
20260506113522 51 130 1.0 4.0 0.00 0.00 0.00 92 1018.3
20260506113044 51 0 0.0 3.0 0.00 0.00 0.00 92 1018.3
20260506112521 52 194 0.0 3.0 0.00 0.00 0.00 91 1018.3
20260506112022 52 0 0.0 4.0 0.00 0.00 0.00 91 1018.3
20260506111541 52 0 1.0 4.0 0.00 0.00 0.00 91 1018.4
20260506111022 52 101 1.0 4.0 0.00 0.00 0.00 91 1018.3
20260506110522 52 96 1.0 4.0 0.00 0.00 0.00 91 1018.3
20260506110042 52 94 1.0 4.0 0.00 0.00 0.00 91 1018.1
20260506105522 52 105 0.0 2.0 0.00 0.00 0.00 91 1018.1
20260506105021 52 0 0.0 0.0 0.00 0.00 0.00 91 1018.0
20260506104559 52 0 0.0 0.0 0.00 0.00 0.00 91 1018.1
20260506104023 52 0 0.0 0.0 0.00 0.00 0.00 91 1018.0
20260506103522 52 0 0.0 0.0 0.00 0.00 0.00 91 1017.9
20260506103047 52 0 0.0 0.0 0.00 0.00 0.00 91 1017.8
20260506102522 52 0 0.0 2.0 0.00 0.00 0.00 91 1017.8
20260506102021 52 0 0.0 2.0 0.00 0.00 0.00 91 1017.6
20260506101539 52 0 1.0 2.0 0.00 0.00 0.00 91 1017.6
20260506101026 52 0 0.0 2.0 0.00 0.00 0.00 91 1017.5
20260506100524 52 0 0.0 2.0 0.00 0.00 0.00 91 1017.5
20260506100043 52 0 0.0 2.0 0.00 0.00 0.00 91 1017.4
20260506095521 52 0 0.0 0.0 0.00 0.00 0.00 92 1017.4
20260506095020 52 0 0.0 1.0 0.00 0.00 0.00 92 1017.4
20260506094540 52 0 0.0 1.0 0.00 0.00 0.00 92 1017.4
20260506094023 52 0 0.0 1.0 0.00 0.00 0.00 92 1017.4
20260506093523 52 0 0.0 2.0 0.00 0.00 0.00 92 1017.3
20260506093039 52 0 0.0 3.0 0.00 0.00 0.00 92 1017.3
20260506092523 52 0 0.0 6.0 0.00 0.00 0.00 91 1017.3
20260506092022 52 107 1.0 6.0 0.00 0.00 0.00 91 1017.2
20260506091539 52 105 1.0 4.0 0.00 0.00 0.00 92 1017.3
20260506091022 52 136 1.0 6.0 0.00 0.00 0.00 92 1017.2
20260506090522 52 142 2.0 6.0 0.00 0.00 0.00 92 1017.2
20260506090045 52 105 1.0 4.0 0.00 0.00 0.00 92 1017.2
20260506085522 52 113 2.0 4.0 0.00 0.00 0.00 92 1017.2
20260506085022 51 121 2.0 4.0 0.00 0.00 0.00 93 1017.3
20260506084558 51 115 1.0 4.0 0.00 0.00 0.00 93 1017.2
20260506084022 51 119 0.0 4.0 0.00 0.00 0.00 93 1017.1
20260506083523 51 116 1.0 3.0 0.00 0.00 0.00 93 1017.2
20260506083041 51 105 0.0 3.0 0.00 0.00 0.00 93 1017.2
20260506082520 51 121 1.0 3.0 0.00 0.00 0.00 94 1017.2
20260506082027 51 117 0.0 3.0 0.00 0.00 0.00 94 1017.2
20260506081541 51 110 0.0 6.0 0.00 0.00 0.00 94 1017.2
20260506081024 51 99 0.0 6.0 0.00 0.00 0.00 94 1017.2
20260506080523 51 105 1.0 3.0 0.00 0.00 0.00 94 1017.2
20260506073518 50 0 0.0 0.0 0.00 0.00 0.00 94 1017.2
20260506073035 50 0 0.0 0.0 0.00 0.00 0.00 94 1017.1
20260506072518 50 0 0.0 0.0 0.00 0.00 0.00 94 1017.1
20260506072018 50 0 0.0 2.0 0.00 0.00 0.00 94 1017.1
20260506071540 50 0 0.0 2.0 0.00 0.00 0.00 94 1017.1
20260506071022 50 112 0.0 2.0 0.00 0.00 0.00 95 1017.1
20260506070521 49 0 0.0 2.0 0.00 0.00 0.00 95 1017.1
20260506062020 50 0 0.0 0.0 0.00 0.00 0.00 94 1016.7
20260506061547 50 0 0.0 2.0 0.00 0.00 0.00 94 1016.5
20260506061019 50 0 0.0 2.0 0.00 0.00 0.00 94 1016.7
20260506060523 50 0 0.0 2.0 0.00 0.00 0.00 94 1016.6
20260506051020 50 0 0.0 1.0 0.00 0.00 0.00 94 1016.5
20260506050529 50 0 0.0 1.0 0.00 0.00 0.00 93 1016.6
20260506045018 50 0 0.0 0.0 0.00 0.00 0.00 93 1016.5